Content
SEND FEEDBACK

Daily
Averages
Monthly
Summary
United States of America

STANLEY, NORTH DAKOTA


Home > North America > United States > North Dakota
Elevation: 2295 feet     Latitude: 48 21N     Longitude: 102 25W

WEATHER
 
SELECT A DAY
Number of Records: 87,014;   Date Range: 12/7/10 - 10/21/14
 
SHARE

PRINT THIS DATA

[ ← Previous Day ]
WEATHER ALMANAC - MARCH 14, 2014
[ Next Day → ]
[ °C ]   °F
Weather ElementAverageHighLow
Temperature31.4 °F37.4 °F (5:15 pm)24.8 °F (9:15 pm)
Dewpoint28.3 °F32 °F (12:35 am)24.8 °F (9:15 pm)
Humidity89.1 %100 % (2:55 am)65 % (5:15 pm)
Barometer29.80 in29.88 in (10:55 pm)29.70 in (12:35 am)
Wind Speed13.1 mph19.6 mph (12:35 am)
Wind Gust31.1 mph (9:55 am)
Weather ElementAverage
Visibility10 mi
Wind DirectionWSW (234.8 °)

Weather ElementTotal
Precipitation---
Heating Degree Days33.9 (Base 65)
Averaged from 71 records on March 14, 2014
WEATHER CONDITIONS BREAKOUT
WIND DIRECTION BREAKOUT
WEATHER BY HOUR - MARCH 14, 2014
[ °C ]   °F
Local TimeTemperatureDewpointHumidityBarometerVisibilityWind DirectionWind SpeedGust SpeedPrecipitationEventsConditions
12:35 AM33.8 °F32.0 °F93 %29.70 in10.0 miWNW (300°)19.6 mph24.2 mphOvercast
12:55 AM33.8 °F32.0 °F93 %29.71 in10.0 miWNW (300°)17.3 mph25.3 mphOvercast
1:15 AM33.8 °F32.0 °F93 %29.71 in10.0 miWNW (300°)16.1 mph26.5 mphOvercast
1:35 AM33.8 °F32.0 °F93 %29.71 in10.0 miWNW (300°)15.0 mph23.0 mphOvercast
1:55 AM33.8 °F32.0 °F93 %29.71 in10.0 miNW (310°)15.0 mph24.2 mphOvercast
2:15 AM33.8 °F32.0 °F93 %29.72 in10.0 miWNW (300°)15.0 mph25.3 mphOvercast
2:35 AM33.8 °F32.0 °F93 %29.72 in10.0 miWNW (300°)19.6 mph26.5 mphOvercast
2:55 AM32.0 °F32.0 °F100 %29.73 in10.0 miWNW (300°)17.3 mph24.2 mphOvercast
3:15 AM32.0 °F32.0 °F100 %29.73 in10.0 miWNW (300°)16.1 mph25.3 mphOvercast
3:35 AM32.0 °F32.0 °F100 %29.73 in10.0 miNW (310°)18.4 mph26.5 mphOvercast
3:55 AM32.0 °F32.0 °F100 %29.73 in10.0 miWNW (300°)17.3 mph21.9 mphOvercast
4:15 AM32.0 °F32.0 °F100 %29.73 in10.0 miWNW (300°)15.0 mph23.0 mphOvercast
4:35 AM32.0 °F32.0 °F100 %29.73 in10.0 miWNW (300°)17.3 mph24.2 mphOvercast
4:55 AM32.0 °F32.0 °F100 %29.73 in10.0 miWNW (290°)15.0 mph20.7 mphOvercast
5:15 AM32.0 °F30.2 °F93 %29.74 in10.0 miWNW (300°)15.0 mph23.0 mphOvercast
5:35 AM32.0 °F30.2 °F93 %29.74 in10.0 miWNW (300°)18.4 mph27.6 mphOvercast
5:55 AM32.0 °F30.2 °F93 %29.75 in10.0 miWNW (290°)18.4 mph26.5 mphOvercast
6:15 AM32.0 °F30.2 °F93 %29.76 in10.0 miWNW (300°)17.3 mph24.2 mphOvercast
6:35 AM32.0 °F28.4 °F87 %29.77 in10.0 miWNW (300°)15.0 mph24.2 mphOvercast
6:55 AM32.0 °F28.4 °F87 %29.77 in10.0 miWNW (300°)19.6 mph25.3 mphOvercast
7:15 AM32.0 °F28.4 °F87 %29.77 in10.0 miNW (310°)19.6 mph27.6 mphOvercast
7:35 AM30.2 °F28.4 °F93 %29.77 in10.0 miWNW (300°)13.8 mph19.6 mphScattered Clouds
7:55 AM28.4 °F28.4 °F100 %29.78 in10.0 miWNW (300°)12.7 mphScattered Clouds
8:15 AM28.4 °F28.4 °F100 %29.79 in10.0 miWNW (300°)13.8 mph19.6 mphOvercast
8:35 AM28.4 °F28.4 °F100 %29.79 in10.0 miWNW (290°)16.1 mphOvercast
8:55 AM28.4 °F28.4 °F100 %29.80 in10.0 miNW (310°)18.4 mph24.2 mphOvercast
9:15 AM30.2 °F28.4 °F93 %29.80 in10.0 miNW (310°)15.0 mph20.7 mphOvercast
9:35 AM32.0 °F28.4 °F87 %29.80 in10.0 miNW (310°)17.3 mph21.9 mphMostly Cloudy
9:55 AM32.0 °F28.4 °F87 %29.80 in10.0 miNW (310°)19.6 mph31.1 mphMostly Cloudy
10:15 AM32.0 °F28.4 °F87 %29.80 in10.0 miNW (310°)18.4 mph23.0 mphMostly Cloudy
10:35 AM32.0 °F28.4 °F87 %29.80 in10.0 miNW (320°)15.0 mph21.9 mphOvercast
10:55 AM32.0 °F28.4 °F87 %29.80 in10.0 miNNW (340°)17.3 mph23.0 mphMostly Cloudy
11:15 AM32.0 °F26.6 °F80 %29.82 in10.0 miNNW (330°)13.8 mph25.3 mphMostly Cloudy
11:35 AM32.0 °F26.6 °F80 %29.82 in10.0 miNW (320°)16.1 mph23.0 mphOvercast
11:55 AM32.0 °F26.6 °F80 %29.83 in10.0 miNNW (330°)13.8 mph21.9 mphOvercast
12:15 PM32.0 °F26.6 °F80 %29.83 in10.0 miNNW (330°)11.5 mph20.7 mphOvercast
12:35 PM33.8 °F26.6 °F75 %29.83 in10.0 miNW (320°)10.4 mph19.6 mphOvercast
12:55 PM33.8 °F26.6 °F75 %29.83 in10.0 miNNW (340°)12.7 mphOvercast
1:15 PM33.8 °F26.6 °F75 %29.83 in10.0 miNW (310°)11.5 mphOvercast
1:35 PM33.8 °F26.6 °F75 %29.83 in10.0 miNW (310°)12.7 mph16.1 mphOvercast
1:55 PM35.6 °F28.4 °F75 %29.83 in10.0 miNW (310°)11.5 mphOvercast
2:15 PM35.6 °F28.4 °F75 %29.83 in10.0 miNNW (330°)10.4 mph16.1 mphOvercast
2:35 PM35.6 °F28.4 °F75 %29.83 in10.0 miNNW (330°)9.2 mphMostly Cloudy
2:55 PM35.6 °F26.6 °F70 %29.82 in10.0 miNW (320°)9.2 mphMostly Cloudy
3:15 PM35.6 °F26.6 °F70 %29.82 in10.0 miNW (310°)8.1 mphMostly Cloudy
3:35 PM35.6 °F26.6 °F70 %29.82 in10.0 miNorth (350°)8.1 mphMostly Cloudy
3:55 PM35.6 °F26.6 °F70 %29.82 in10.0 miWNW (300°)6.9 mphPartly Cloudy
4:15 PM35.6 °F28.4 °F75 %29.82 in10.0 miNNE (20°)6.9 mphMostly Cloudy
4:35 PM35.6 °F26.6 °F70 %29.83 in10.0 miNorth (10°)4.6 mphMostly Cloudy
4:55 PM35.6 °F28.4 °F75 %29.83 in10.0 miNNE (30°)5.8 mphMostly Cloudy
5:15 PM37.4 °F26.6 °F65 %29.83 in10.0 miNorth (360°)5.8 mphMostly Cloudy
5:35 PM37.4 °F30.2 °F75 %29.83 in10.0 miENE (60°)8.1 mphMostly Cloudy
5:55 PM33.8 °F28.4 °F81 %29.83 in10.0 miENE (70°)9.2 mphMostly Cloudy
6:15 PM32.0 °F28.4 °F87 %29.84 in10.0 miEast (90°)9.2 mphMostly Cloudy
6:35 PM32.0 °F28.4 °F87 %29.85 in10.0 miENE (70°)8.1 mphMostly Cloudy
6:55 PM32.0 °F28.4 °F87 %29.85 in10.0 miENE (70°)9.2 mphPartly Cloudy
7:15 PM30.2 °F28.4 °F93 %29.85 in10.0 miEast (90°)10.4 mphPartly Cloudy
7:35 PM28.4 °F28.4 °F100 %29.86 in10.0 miEast (80°)11.5 mphMostly Cloudy
7:55 PM28.4 °F28.4 °F100 %29.86 in10.0 miEast (90°)11.5 mphMostly Cloudy
8:15 PM26.6 °F26.6 °F100 %29.87 in10.0 miEast (100°)11.5 mphMostly Cloudy
8:35 PM26.6 °F26.6 °F100 %29.87 in10.0 miEast (80°)10.4 mphOvercast
8:55 PM26.6 °F26.6 °F100 %29.87 in10.0 miEast (80°)9.2 mph16.1 mphOvercast
9:15 PM24.8 °F24.8 °F100 %29.87 in10.0 miEast (90°)10.4 mphOvercast
9:35 PM24.8 °F24.8 °F100 %29.87 in10.0 miEast (80°)10.4 mphOvercast
9:55 PM24.8 °F24.8 °F100 %29.87 in10.0 miEast (90°)10.4 mphOvercast
10:15 PM24.8 °F24.8 °F100 %29.87 in10.0 miEast (100°)11.5 mphOvercast
10:35 PM24.8 °F24.8 °F100 %29.87 in10.0 miEast (90°)10.4 mphOvercast
10:55 PM24.8 °F24.8 °F100 %29.88 in10.0 miESE (110°)12.7 mphOvercast
11:15 PM24.8 °F24.8 °F100 %29.88 in10.0 miEast (90°)8.1 mphOvercast
11:35 PM24.8 °F24.8 °F100 %29.88 in10.0 miEast (80°)12.7 mph16.1 mphOvercast
11:55 PM24.8 °F24.8 °F100 %29.88 in10.0 miEast (90°)11.5 mphOvercast
Hourly data recorded from K08D, located miles away from Stanley, North Dakota







STORIES FROM OUR PARTNERS